0WD RJFO-RJFY

Flight info

Callsign 0WD
Flight time 0h 44m
Altitude 14000
Route RJFO/01 TOYO4 OOITA Y45 HKC DCT RJFY/26L
Aircraft PC12/L-V/N

Departure

Time 2026-04-24 23:37
Airport Oita Airport (RJFO)

Arrival

Time 2026-04-25 00:22
Airport JMSDF Kanoya Air Base (RJFY)
Time Latitude Longitude Altitude Speed Heading
2026-04-24 23:28 33.47780 131.73408 24 ft 0 kts 269°
2026-04-24 23:32 33.47787 131.73413 23 ft 5 kts 72°
2026-04-24 23:33 33.47765 131.73471 22 ft 12 kts 148°
2026-04-24 23:33 33.47680 131.73503 23 ft 15 kts 179°
2026-04-24 23:33 33.47570 131.73509 21 ft 18 kts 182°
2026-04-24 23:33 33.47440 131.73508 20 ft 20 kts 179°
2026-04-24 23:34 33.47303 131.73508 19 ft 21 kts 181°
2026-04-24 23:34 33.47159 131.73505 17 ft 22 kts 179°
2026-04-24 23:34 33.47008 131.73505 14 ft 23 kts 181°
2026-04-24 23:34 33.46856 131.73502 14 ft 23 kts 180°
2026-04-24 23:35 33.46711 131.73498 13 ft 19 kts 184°
2026-04-24 23:35 33.46624 131.73540 12 ft 13 kts 108°
2026-04-24 23:35 33.46610 131.73654 10 ft 14 kts 82°
2026-04-24 23:35 33.46663 131.73703 9 ft 9 kts 350°
2026-04-24 23:36 33.46721 131.73702 10 ft 2 kts
2026-04-24 23:36 33.46722 131.73702 10 ft 0 kts
2026-04-24 23:36 33.46870 131.73703 10 ft 62 kts
2026-04-24 23:37 33.47472 131.73714 108 ft 110 kts 358°
2026-04-24 23:37 33.48243 131.73721 461 ft 128 kts
2026-04-24 23:37 33.49703 131.74884 1095 ft 168 kts 72°
2026-04-24 23:38 33.49593 131.76186 1407 ft 185 kts 112°
2026-04-24 23:38 33.48730 131.77184 1721 ft 199 kts 146°
2026-04-24 23:38 33.47632 131.77972 2053 ft 203 kts 142°
2026-04-24 23:38 33.46582 131.78893 2382 ft 205 kts 138°
2026-04-24 23:39 33.45576 131.79880 2703 ft 206 kts 136°
2026-04-24 23:39 33.44599 131.80893 3025 ft 205 kts 135°
2026-04-24 23:39 33.43626 131.81923 3344 ft 205 kts 135°
2026-04-24 23:39 33.42518 131.82634 3629 ft 213 kts 169°
2026-04-24 23:40 33.41193 131.82378 3937 ft 219 kts 194°
2026-04-24 23:40 33.39897 131.81706 4253 ft 220 kts 202°
2026-04-24 23:40 33.38622 131.80914 4580 ft 220 kts 205°
2026-04-24 23:40 33.37375 131.80119 4904 ft 220 kts 206°
2026-04-24 23:41 33.36121 131.79315 5232 ft 219 kts 206°
2026-04-24 23:41 33.34887 131.78528 5551 ft 219 kts 207°
2026-04-24 23:41 33.33643 131.77730 5873 ft 219 kts 207°
2026-04-24 23:41 33.32409 131.76944 6192 ft 218 kts 207°
2026-04-24 23:42 33.31090 131.76102 6531 ft 220 kts 207°
2026-04-24 23:42 33.29785 131.75267 6873 ft 223 kts 207°
2026-04-24 23:42 33.28569 131.74495 7186 ft 224 kts 208°
2026-04-24 23:42 33.27336 131.73709 7498 ft 224 kts 208°
2026-04-24 23:43 33.26092 131.72916 7812 ft 224 kts 209°
2026-04-24 23:43 33.24791 131.72089 8133 ft 225 kts 209°
2026-04-24 23:43 33.23558 131.71300 8439 ft 224 kts 209°
2026-04-24 23:43 33.22315 131.70506 8749 ft 224 kts 210°
2026-04-24 23:44 33.21246 131.69472 9056 ft 220 kts 224°
2026-04-24 23:44 33.20041 131.68643 9386 ft 218 kts 208°
2026-04-24 23:44 33.18850 131.67879 9696 ft 216 kts 212°
2026-04-24 23:44 33.17668 131.67056 10012 ft 213 kts 213°
2026-04-24 23:45 33.16545 131.66240 10312 ft 211 kts 213°
2026-04-24 23:45 33.15409 131.65398 10633 ft 210 kts 213°
2026-04-24 23:45 33.14276 131.64558 10938 ft 208 kts 214°
2026-04-24 23:45 33.13190 131.63753 11241 ft 206 kts 213°
2026-04-24 23:46 33.12103 131.62946 11548 ft 204 kts 213°
2026-04-24 23:46 33.11018 131.62141 11854 ft 202 kts 213°
2026-04-24 23:46 33.09962 131.61357 12153 ft 200 kts 213°
2026-04-24 23:46 33.08939 131.60596 12451 ft 198 kts 213°
2026-04-24 23:47 33.07932 131.59853 12752 ft 195 kts 213°
2026-04-24 23:47 33.06941 131.59116 13039 ft 193 kts 213°
2026-04-24 23:47 33.05947 131.58379 13337 ft 191 kts 213°
2026-04-24 23:47 33.04959 131.57649 13634 ft 189 kts 213°
2026-04-24 23:48 33.03972 131.56918 13898 ft 188 kts 213°
2026-04-24 23:48 33.02933 131.56148 13959 ft 198 kts 213°
2026-04-24 23:48 33.01879 131.55366 13962 ft 208 kts 213°
2026-04-24 23:48 33.00764 131.54538 13960 ft 216 kts 213°
2026-04-24 23:49 32.99583 131.53665 13961 ft 222 kts 213°
2026-04-24 23:49 32.98402 131.52797 14010 ft 225 kts 213°
2026-04-24 23:49 32.97184 131.51895 14016 ft 229 kts 213°
2026-04-24 23:49 32.95962 131.50992 14010 ft 232 kts 213°
2026-04-24 23:50 32.94725 131.50081 14017 ft 234 kts 213°
2026-04-24 23:50 32.93492 131.49170 14017 ft 236 kts 213°
2026-04-24 23:50 32.92245 131.48247 14021 ft 238 kts 213°
2026-04-24 23:50 32.90997 131.47328 14020 ft 239 kts 213°
2026-04-24 23:51 32.89732 131.46394 14022 ft 240 kts 213°
2026-04-24 23:51 32.88469 131.45462 14021 ft 240 kts 213°
2026-04-24 23:51 32.87218 131.44540 14023 ft 241 kts 214°
2026-04-24 23:51 32.85969 131.43617 14020 ft 242 kts 213°
2026-04-24 23:52 32.84723 131.42699 14020 ft 242 kts 213°
2026-04-24 23:52 32.83485 131.41788 14017 ft 242 kts 214°
2026-04-24 23:52 32.82441 131.41017 14018 ft 243 kts 213°
2026-04-24 23:52 32.81201 131.40102 14015 ft 243 kts 214°
2026-04-24 23:53 32.79961 131.39174 14007 ft 243 kts 214°
2026-04-24 23:53 32.78726 131.38251 14006 ft 243 kts 214°
2026-04-24 23:53 32.77477 131.37314 14004 ft 243 kts 214°
2026-04-24 23:53 32.76239 131.36388 14003 ft 243 kts 213°
2026-04-24 23:54 32.75012 131.35467 14006 ft 242 kts 214°
2026-04-24 23:54 32.73789 131.34554 14003 ft 242 kts 213°
2026-04-24 23:54 32.72501 131.33588 14005 ft 242 kts 213°
2026-04-24 23:54 32.71257 131.32661 14007 ft 243 kts 213°
2026-04-24 23:55 32.69853 131.31610 14003 ft 243 kts 213°
2026-04-24 23:55 32.68430 131.30547 14004 ft 243 kts 213°
2026-04-24 23:55 32.67059 131.29520 14005 ft 243 kts 213°
2026-04-24 23:55 32.65748 131.28543 14003 ft 243 kts 213°
2026-04-24 23:56 32.64514 131.27626 14002 ft 243 kts 213°
2026-04-24 23:56 32.63265 131.26692 14003 ft 243 kts 213°
2026-04-24 23:56 32.62009 131.25755 14004 ft 244 kts 213°
2026-04-24 23:56 32.60754 131.24818 14002 ft 244 kts 213°
2026-04-24 23:57 32.59491 131.23879 14004 ft 244 kts 213°
2026-04-24 23:57 32.58207 131.22922 14003 ft 244 kts 213°
2026-04-24 23:57 32.56937 131.21977 14008 ft 244 kts 213°
2026-04-24 23:57 32.55682 131.21045 14008 ft 244 kts 214°
2026-04-24 23:58 32.54460 131.20136 14008 ft 244 kts 213°
2026-04-24 23:58 32.53203 131.19199 14012 ft 244 kts 213°
2026-04-24 23:58 32.51917 131.18240 14015 ft 244 kts 213°
2026-04-24 23:58 32.50667 131.17313 14018 ft 244 kts 213°
2026-04-24 23:59 32.49303 131.16727 14030 ft 246 kts 190°
2026-04-24 23:59 32.47803 131.16518 14023 ft 247 kts 187°
2026-04-24 23:59 32.46292 131.16394 14020 ft 247 kts 186°
2026-04-24 23:59 32.44756 131.16289 14019 ft 248 kts 185°
2026-04-25 00:00 32.43276 131.16200 14020 ft 248 kts 184°
2026-04-25 00:00 32.41789 131.16118 14019 ft 248 kts 184°
2026-04-25 00:00 32.40286 131.16040 14017 ft 248 kts 185°
2026-04-25 00:00 32.38823 131.15962 14016 ft 248 kts 185°
2026-04-25 00:01 32.37353 131.15884 14018 ft 248 kts 184°
2026-04-25 00:01 32.35841 131.15807 14017 ft 248 kts 185°
2026-04-25 00:01 32.34321 131.15726 14017 ft 248 kts 185°
2026-04-25 00:01 32.32810 131.15648 14017 ft 248 kts 185°
2026-04-25 00:02 32.31267 131.15567 14009 ft 248 kts 185°
2026-04-25 00:02 32.29749 131.15488 14003 ft 248 kts 185°
2026-04-25 00:02 32.28256 131.15410 13998 ft 248 kts 184°
2026-04-25 00:02 32.26736 131.15332 13996 ft 248 kts 185°
2026-04-25 00:03 32.25214 131.15254 13995 ft 248 kts 184°
2026-04-25 00:03 32.23694 131.15178 14002 ft 247 kts 184°
2026-04-25 00:03 32.22180 131.15099 14010 ft 247 kts 185°
2026-04-25 00:03 32.20668 131.15022 14014 ft 246 kts 185°
2026-04-25 00:04 32.19184 131.14944 14015 ft 246 kts 185°
2026-04-25 00:04 32.17638 131.14864 14011 ft 246 kts 185°
2026-04-25 00:04 32.15935 131.14774 14014 ft 245 kts 185°
2026-04-25 00:04 32.14432 131.14697 14012 ft 245 kts 185°
2026-04-25 00:05 32.12952 131.14618 14016 ft 245 kts 185°
2026-04-25 00:05 32.11471 131.14543 13834 ft 253 kts 185°
2026-04-25 00:05 32.09916 131.14462 13585 ft 260 kts 184°
2026-04-25 00:05 32.08326 131.14377 13334 ft 266 kts 184°
2026-04-25 00:06 32.06719 131.14294 13078 ft 266 kts 184°
2026-04-25 00:06 32.05136 131.14212 12820 ft 261 kts 183°
2026-04-25 00:06 32.03591 131.14133 12569 ft 258 kts 184°
2026-04-25 00:06 32.02066 131.14058 12313 ft 255 kts 184°
2026-04-25 00:07 32.00562 131.13980 12066 ft 253 kts 184°
2026-04-25 00:07 31.99035 131.13902 11805 ft 251 kts 184°
2026-04-25 00:07 31.97491 131.13825 11540 ft 250 kts 183°
2026-04-25 00:07 31.95791 131.13737 11246 ft 248 kts 183°
2026-04-25 00:08 31.94060 131.13646 10948 ft 247 kts 183°
2026-04-25 00:08 31.92448 131.13564 10670 ft 246 kts 183°
2026-04-25 00:08 31.90868 131.13481 10398 ft 246 kts 182°
2026-04-25 00:08 31.89213 131.13397 10117 ft 246 kts 182°
2026-04-25 00:09 31.87550 131.13312 9833 ft 246 kts 182°
2026-04-25 00:09 31.86055 131.13234 9579 ft 246 kts 182°
2026-04-25 00:09 31.84461 131.13155 9308 ft 246 kts 182°
2026-04-25 00:09 31.82924 131.13075 9043 ft 246 kts 182°
2026-04-25 00:10 31.81477 131.13001 8804 ft 245 kts 182°
2026-04-25 00:10 31.80031 131.12923 8571 ft 241 kts 181°
2026-04-25 00:10 31.78565 131.12851 8336 ft 239 kts 181°
2026-04-25 00:10 31.77149 131.12779 8101 ft 238 kts 181°
2026-04-25 00:11 31.75724 131.12707 7864 ft 237 kts 181°
2026-04-25 00:11 31.74300 131.12634 7631 ft 236 kts 180°
2026-04-25 00:11 31.72896 131.12560 7398 ft 236 kts 180°
2026-04-25 00:11 31.71473 131.12489 7163 ft 236 kts 181°
2026-04-25 00:12 31.69992 131.12418 6916 ft 236 kts 181°
2026-04-25 00:12 31.68521 131.12341 6670 ft 237 kts 180°
2026-04-25 00:12 31.67006 131.12260 6429 ft 238 kts 180°
2026-04-25 00:12 31.65508 131.12184 6186 ft 238 kts 181°
2026-04-25 00:13 31.63969 131.12105 5937 ft 238 kts 181°
2026-04-25 00:13 31.62470 131.12028 5677 ft 239 kts 180°
2026-04-25 00:13 31.60938 131.11952 5446 ft 238 kts 181°
2026-04-25 00:13 31.59410 131.11870 5203 ft 239 kts 180°
2026-04-25 00:14 31.57888 131.11792 4945 ft 238 kts 180°
2026-04-25 00:14 31.56422 131.11711 4698 ft 224 kts 179°
2026-04-25 00:14 31.55010 131.11655 4442 ft 213 kts 179°
2026-04-25 00:14 31.53704 131.11578 4165 ft 206 kts 177°
2026-04-25 00:15 31.52383 131.11507 3900 ft 206 kts 177°
2026-04-25 00:15 31.51057 131.11450 3651 ft 206 kts 178°
2026-04-25 00:15 31.49726 131.11383 3408 ft 206 kts 177°
2026-04-25 00:15 31.48397 131.11308 3165 ft 207 kts 177°
2026-04-25 00:16 31.47068 131.11246 2989 ft 204 kts 176°
2026-04-25 00:16 31.45757 131.11192 2950 ft 206 kts 174°
2026-04-25 00:16 31.44411 131.11116 2951 ft 212 kts 176°
2026-04-25 00:16 31.43033 131.11034 2954 ft 216 kts 176°
2026-04-25 00:17 31.41710 131.10521 2794 ft 227 kts 216°
2026-04-25 00:17 31.40860 131.09186 2629 ft 225 kts 250°
2026-04-25 00:17 31.40483 131.07597 2473 ft 221 kts 259°
2026-04-25 00:17 31.40241 131.06007 2326 ft 218 kts 262°
2026-04-25 00:18 31.40001 131.04407 2174 ft 215 kts 260°
2026-04-25 00:18 31.39757 131.02872 2149 ft 207 kts 260°
2026-04-25 00:18 31.39387 131.01459 2152 ft 195 kts 241°
2026-04-25 00:18 31.39073 131.00110 2150 ft 182 kts 269°
2026-04-25 00:19 31.38980 130.98763 2167 ft 183 kts 266°
2026-04-25 00:19 31.38828 130.97395 2166 ft 186 kts 264°
2026-04-25 00:19 31.38625 130.96021 2052 ft 195 kts 263°
2026-04-25 00:19 31.38404 130.94575 1838 ft 193 kts 261°
2026-04-25 00:20 31.38168 130.93167 1583 ft 189 kts 261°
2026-04-25 00:20 31.37953 130.91830 1346 ft 180 kts 261°
2026-04-25 00:20 31.37745 130.90547 1133 ft 171 kts 263°
2026-04-25 00:20 31.37549 130.89348 947 ft 158 kts 264°
2026-04-25 00:21 31.37373 130.88274 769 ft 134 kts 263°
2026-04-25 00:21 31.37235 130.87405 615 ft 109 kts 266°
2026-04-25 00:21 31.37125 130.86626 488 ft 110 kts 262°
2026-04-25 00:21 31.36990 130.85843 372 ft 114 kts 262°
2026-04-25 00:22 31.36866 130.85071 226 ft 104 kts 262°
2026-04-25 00:22 31.36772 130.84433 199 ft 75 kts 264°
2026-04-25 00:22 31.36696 130.84018 207 ft 46 kts 261°
2026-04-25 00:22 31.36652 130.83728 209 ft 34 kts 268°
2026-04-25 00:23 31.36605 130.83467 211 ft 40 kts 262°
2026-04-25 00:23 31.36556 130.83164 215 ft 45 kts 258°
2026-04-25 00:23 31.36511 130.82867 222 ft 26 kts 258°
2026-04-25 00:23 31.36522 130.82762 225 ft 8 kts 316°
2026-04-25 00:24 31.36595 130.82729 227 ft 18 kts 354°
2026-04-25 00:24 31.36729 130.82704 231 ft 24 kts 354°
2026-04-25 00:24 31.36860 130.82672 234 ft 20 kts 351°
2026-04-25 00:24 31.36978 130.82707 235 ft 19 kts 28°
2026-04-25 00:25 31.37085 130.82774 236 ft 19 kts 27°
2026-04-25 00:25 31.37189 130.82840 236 ft 19 kts 31°
2026-04-25 00:25 31.37300 130.82910 235 ft 19 kts 31°
2026-04-25 00:25 31.37412 130.82976 236 ft 17 kts 36°
2026-04-25 00:26 31.37474 130.83081 235 ft 17 kts 64°
2026-04-25 00:26 31.37505 130.83156 234 ft 8 kts 61°
2026-04-25 00:26 31.37511 130.83200 232 ft 0 kts 112°
2026-04-25 00:26 31.37511 130.83202 232 ft 0 kts 111°